Volver al catálogo

COSMOS 1275 DEB

ActivoPO
NORAD 12667·DEBRIS·🇷🇺 Russia

Lanzado Jun 4, 1981 desde Plesetsk Cosmodrome

Loading…

Próximos Pases (próximas 24 horas)

TLE

ActualizadoSource: Space-Track

Época: Sep 14, 2026, 14:14 UTC

1 12667U 81053X   26257.59320708  .00000347  00000-0  29874-3 0  9992
2 12667  82.8377 309.6109 0035292 174.3776 339.2818 13.83695699266897

Sigue COSMOS 1275 DEB en tiempo real con AllMySat

Download on the App Store